• In Romania
  • List of Countries
  • For 7 days
  • Water Temperature
  • Satellite Maps
  • Weather Map
  • Weather Widgets
  • user-avatar
    Login

    Hourly Weather Ordino

    Today, 26 March, Sunday

    Time Temperature Precipitation Wind Pressure Humidity
    00:00 -3°C° 0 mm 2 mps 630 mmHg 86%
    01:00 -3°C° 0 mm 2 mps 630 mmHg 86%
    02:00 -3°C° 0 mm 2 mps 630 mmHg 87%
    03:00 -3°C° 0 mm 2 mps 630 mmHg 87%
    04:00 -3°C° 0 mm 2 mps 630 mmHg 87%
    05:00 -3°C° 0 mm 2 mps 630 mmHg 87%
    06:00 -3°C° 0 mm 2 mps 630 mmHg 86%
    07:00 -1°C° 0 mm 2 mps 631 mmHg 80%
    08:00 +3°C° 0 mm 2 mps 632 mmHg 73%
    09:00 +5°C° 0 mm 2 mps 633 mmHg 67%
    10:00 +6°C° 0 mm 2 mps 634 mmHg 62%
    11:00 +7°C° 0 mm 2 mps 634 mmHg 58%
    12:00 +9°C° 0 mm 2 mps 634 mmHg 54%
    13:00 +9°C° 0 mm 2 mps 634 mmHg 54%
    14:00 +9°C° 0 mm 2 mps 634 mmHg 54%
    15:00 +9°C° 0 mm 2 mps 634 mmHg 54%
    16:00 +6°C° 0 mm 2 mps 633 mmHg 64%
    17:00 +4°C° 0 mm 2 mps 632 mmHg 74%
    18:00 +2°C° 0 mm 2 mps 631 mmHg 84%
    19:00 +1°C° 0 mm 2 mps 631 mmHg 83%
    20:00 +1°C° 0 mm 1 mps 631 mmHg 83%
    21:00 0°C° 0 mm 1 mps 631 mmHg 83%
    22:00 -2°C° 0 mm 2 mps 631 mmHg 79%
    23:00 -2°C° 0 mm 2 mps 631 mmHg 74%

    Tomorrow, 27 March, Monday

    Time Temperature Precipitation Wind Pressure Humidity
    00:00 -2°C° 0 mm 2 mps 631 mmHg 70%
    01:00 -1°C° 0 mm 2 mps 631 mmHg 70%
    02:00 -1°C° 0 mm 2 mps 631 mmHg 69%
    03:00 -1°C° 0 mm 2 mps 631 mmHg 69%
    04:00 -1°C° 0 mm 2 mps 631 mmHg 71%
    05:00 +1°C° 0 mm 2 mps 631 mmHg 72%
    06:00 +1°C° 0 mm 2 mps 632 mmHg 74%
    07:00 +1°C° 0.1 mm 3 mps 633 mmHg 70%
    08:00 +3°C° 0.1 mm 3 mps 634 mmHg 65%
    09:00 +4°C° 0.1 mm 3 mps 634 mmHg 60%
    10:00 +4°C° 0.4 mm 3 mps 635 mmHg 64%
    11:00 +4°C° 0.4 mm 3 mps 635 mmHg 68%
    12:00 +4°C° 0.4 mm 3 mps 635 mmHg 72%
    13:00 +5°C° 0.1 mm 3 mps 635 mmHg 70%
    14:00 +5°C° 0.1 mm 3 mps 635 mmHg 69%
    15:00 +7°C° 0.1 mm 3 mps 635 mmHg 68%
    16:00 +6°C° 0.1 mm 2 mps 635 mmHg 75%
    17:00 +4°C° 0.1 mm 2 mps 635 mmHg 82%
    18:00 +3°C° 0.1 mm 2 mps 634 mmHg 89%
    19:00 +3°C° 0 mm 1 mps 634 mmHg 89%
    20:00 +2°C° 0 mm 1 mps 634 mmHg 90%
    21:00 +1°C° 0 mm 1 mps 635 mmHg 91%
    22:00 +1°C° 0 mm 1 mps 635 mmHg 90%
    23:00 +1°C° 0 mm 1 mps 635 mmHg 90%

    Day after tomorrow, 28 March, Tuesday

    Time Temperature Precipitation Wind Pressure Humidity
    00:00 +1°C° 0 mm 1 mps 635 mmHg 89%
    01:00 0°C° 0 mm 1 mps 635 mmHg 89%
    02:00 0°C° 0 mm 1 mps 635 mmHg 89%
    03:00 -1°C° 0 mm 1 mps 634 mmHg 89%
    04:00 -1°C° 0 mm 1 mps 634 mmHg 89%
    05:00 0°C° 0 mm 1 mps 635 mmHg 88%
    06:00 0°C° 0 mm 1 mps 635 mmHg 88%
    07:00 +3°C° 0 mm 1 mps 636 mmHg 79%
    08:00 +6°C° 0 mm 1 mps 638 mmHg 70%
    09:00 +8°C° 0 mm 1 mps 639 mmHg 61%
    10:00 +9°C° 0 mm 1 mps 640 mmHg 60%
    11:00 +10°C° 0 mm 1 mps 640 mmHg 58%
    12:00 +11°C° 0 mm 1 mps 640 mmHg 56%
    13:00 +11°C° 0 mm 1 mps 640 mmHg 59%
    14:00 +11°C° 0 mm 1 mps 640 mmHg 62%
    15:00 +10°C° 0 mm 1 mps 639 mmHg 65%
    16:00 +9°C° 0 mm 1 mps 639 mmHg 73%
    17:00 +7°C° 0 mm 1 mps 638 mmHg 81%
    18:00 +4°C° 0 mm 0 mps 638 mmHg 89%
    19:00 +3°C° 0 mm 0 mps 638 mmHg 90%
    20:00 +2°C° 0 mm 0 mps 637 mmHg 92%
    21:00 +1°C° 0 mm 0 mps 637 mmHg 93%
    22:00 0°C° 0 mm 0 mps 637 mmHg 93%
    23:00 0°C° 0 mm 0 mps 637 mmHg 92%

    29 March, Wednesday

    Time Temperature Precipitation Wind Pressure Humidity
    00:00 -1°C° 0 mm 0 mps 637 mmHg 92%
    01:00 -1°C° 0 mm 0 mps 636 mmHg 91%
    02:00 -1°C° 0 mm 0 mps 636 mmHg 90%
    03:00 -1°C° 0 mm 0 mps 636 mmHg 90%
    04:00 -1°C° 0 mm 0 mps 636 mmHg 89%
    05:00 -1°C° 0 mm 0 mps 636 mmHg 88%
    06:00 -1°C° 0 mm 0 mps 636 mmHg 87%
    07:00 +2°C° 0 mm 0 mps 638 mmHg 76%
    08:00 +6°C° 0 mm 0 mps 639 mmHg 64%
    09:00 +10°C° 0 mm 0 mps 641 mmHg 53%
    10:00 +12°C° 0 mm 1 mps 641 mmHg 50%
    11:00 +13°C° 0 mm 1 mps 641 mmHg 47%
    12:00 +14°C° 0 mm 1 mps 641 mmHg 44%
    13:00 +14°C° 0 mm 2 mps 641 mmHg 45%
    14:00 +14°C° 0 mm 2 mps 641 mmHg 46%
    15:00 +14°C° 0 mm 2 mps 640 mmHg 48%
    16:00 +11°C° 0 mm 1 mps 639 mmHg 59%
    17:00 +9°C° 0 mm 1 mps 638 mmHg 70%
    18:00 +6°C° 0 mm 1 mps 637 mmHg 81%
    19:00 +5°C° 0 mm 1 mps 637 mmHg 83%
    20:00 +4°C° 0 mm 1 mps 637 mmHg 85%
    21:00 +3°C° 0 mm 1 mps 637 mmHg 87%
    22:00 +3°C° 0 mm 1 mps 637 mmHg 87%
    23:00 +3°C° 0 mm 1 mps 637 mmHg 86%

    30 March, Thursday

    Time Temperature Precipitation Wind Pressure Humidity
    00:00 +3°C° 0 mm 1 mps 637 mmHg 86%
    01:00 +2°C° 0 mm 1 mps 636 mmHg 86%
    02:00 +2°C° 0 mm 1 mps 636 mmHg 86%
    03:00 +2°C° 0 mm 1 mps 636 mmHg 86%
    04:00 +2°C° 0 mm 1 mps 636 mmHg 85%
    05:00 +2°C° 0 mm 1 mps 636 mmHg 84%
    06:00 +2°C° 0 mm 1 mps 636 mmHg 84%
    07:00 +4°C° 0 mm 2 mps 637 mmHg 72%
    08:00 +7°C° 0 mm 2 mps 638 mmHg 61%
    09:00 +10°C° 0 mm 2 mps 639 mmHg 50%
    10:00 +12°C° 0 mm 2 mps 640 mmHg 46%
    11:00 +13°C° 0 mm 2 mps 640 mmHg 42%
    12:00 +13°C° 0 mm 3 mps 640 mmHg 38%
    13:00 +13°C° 0 mm 3 mps 639 mmHg 40%
    14:00 +13°C° 0 mm 3 mps 639 mmHg 42%
    15:00 +13°C° 0 mm 3 mps 639 mmHg 43%
    16:00 +11°C° 0 mm 3 mps 638 mmHg 54%
    17:00 +8°C° 0 mm 2 mps 637 mmHg 64%
    18:00 +6°C° 0 mm 2 mps 636 mmHg 75%
    19:00 +5°C° 0 mm 2 mps 636 mmHg 77%
    20:00 +4°C° 0 mm 2 mps 636 mmHg 80%
    21:00 +4°C° 0 mm 2 mps 636 mmHg 82%
    22:00 +3°C° 0 mm 2 mps 636 mmHg 82%
    23:00 +3°C° 0 mm 2 mps 635 mmHg 81%

    31 March, Friday

    Time Temperature Precipitation Wind Pressure Humidity
    00:00 +3°C° 0 mm 2 mps 635 mmHg 81%
    01:00 +3°C° 0 mm 2 mps 635 mmHg 80%
    02:00 +3°C° 0 mm 2 mps 634 mmHg 78%
    03:00 +2°C° 0 mm 2 mps 634 mmHg 77%
    04:00 +3°C° 0 mm 1 mps 634 mmHg 76%
    05:00 +3°C° 0 mm 1 mps 634 mmHg 75%
    06:00 +3°C° 0 mm 1 mps 634 mmHg 74%
    07:00 +5°C° 0.1 mm 1 mps 635 mmHg 69%
    08:00 +7°C° 0.1 mm 1 mps 636 mmHg 64%
    09:00 +9°C° 0.1 mm 1 mps 637 mmHg 59%
    10:00 +9°C° 0.2 mm 2 mps 637 mmHg 61%
    11:00 +9°C° 0.2 mm 2 mps 637 mmHg 63%
    12:00 +10°C° 0.2 mm 3 mps 637 mmHg 66%
    13:00 +9°C° 0.5 mm 3 mps 636 mmHg 69%
    14:00 +9°C° 0.5 mm 2 mps 636 mmHg 72%
    15:00 +9°C° 0.5 mm 2 mps 635 mmHg 75%
    16:00 +7°C° 1.2 mm 2 mps 634 mmHg 81%
    17:00 +7°C° 1.2 mm 1 mps 634 mmHg 87%
    18:00 +6°C° 1.2 mm 1 mps 633 mmHg 94%
    19:00 +5°C° 0.6 mm 1 mps 633 mmHg 94%
    20:00 +4°C° 0.6 mm 1 mps 633 mmHg 94%
    21:00 +4°C° 0.6 mm 1 mps 633 mmHg 95%
    22:00 +3°C° 0.2 mm 1 mps 632 mmHg 95%
    23:00 +3°C° 0.2 mm 1 mps 632 mmHg 94%
    Show more